Weather in Guía de Isora

Spain     28°12′41″N   16°46′54″W
temp.,
°C
wind,
m/s
gust,
m/s
humid.,
%
clouds,
%
prec.,
mm/h
press.,
hPa
HPBL,
m
11 april, sun
sun1101:00+12ene11660 0.0 101955
04:00+12ne12532 0.0 101841
07:00+11e22554 0.0 101741
10:00+14nnw1151100 0.0 1019379
13:00+17w325070 0.0 1019878
16:00+18wnw3354100 0.0 1018963
19:00+16nw225617 0.0 1019587
22:00+15nnw235554 0.0 1021155
12 april, mon
mon1201:00+14ene126157 0.0 102175
04:00+13ene127034 0.0 102053
07:00+12ne227520 0.0 102056
10:00+16e12625 0.0 1021450
13:00+19wnw12538 0.0 1020911
16:00+20nw225517 0.0 1019945
19:00+18nnw22607 0.0 1019614
22:00+15nne1272100 0.0 1022168
13 april, tue
tue1301:00+14ene0177100 0.0 102399
04:00+14e2270100 0.0 102157
07:00+14ene227044 0.0 102044
10:00+16nnw115979 0.0 1021413
13:00+19nw335576 0.1 10211048
16:00+18nnw336095 0.9 1019844
19:00+18w235913 2.1 1019906
22:00+14n34822 0.3 1022208
14 april, wed
wed1401:00+14nne347233 0.3 102194
04:00+13nne337039 0.0 102063
07:00+12nne33781 0.0 101957
10:00+16nnw33561 0.0 1020510
13:00+18nnw44513 0.0 1019991
16:00+18nnw446119 0.1 10171019
19:00+16n446735 0.3 1017607
22:00+14nne237312 0.0 1019264
15 april, thu
thu1501:00+13nne22745 0.0 1019153
04:00+12nne33775 0.0 1018100
07:00+11nne22575 0.0 101746
10:00+15n12544 0.0 1018593
13:00+18nw335233 0.0 1018994
16:00+17nnw446268 0.0 1017934
19:00+15n336720 0.1 1017627
22:00+13nne22795 0.0 1019229